Bullhead City, AZ

2:37 PM MST on August 24, 2016 (GMT -0700)
Laughlin-Bullhead International

Weather History for KIFP - April, 2013

Change the Weather History Date:

Monday, April 8, 2013

  Actual Average Record
Temperature  
Mean Temperature 66 °F -  
Max Temperature 75 °F 77 °F 105 °F (1989)
Min Temperature 57 °F 56 °F 44 °F (1998)
Cooling Degree Days 1    
Growing Degree Days 16 (Base 50)    
Moisture  
Dew Point 31 °F    
Average Humidity 28    
Maximum Humidity 51    
Minimum Humidity 15    
Precipitation  
Precipitation 0.00 in - - ()
Sea Level Pressure  
Sea Level Pressure 29.51 in    
Wind  
Wind Speed 14 mph (WSW)    
Max Wind Speed 29 mph    
Max Gust Speed 40 mph    
Visibility 10 miles    
Events      
Averages and records for this station are not official NWS values.
T = Trace of Precipitation, MM = Missing Value Source: NWS Daily Summary

Daily Weather History Graph

Daily Weather History Graph

Search for Another Location

Airport or City:

Trip Planner

Search our weather history database for the weather conditions in past years. The results will help you decide how hot, cold, wet, or windy it might be!

Date:

Astronomy

Apr. 08, 2013 Rise Set
Actual Time 6:14 AM MST 7:05 PM MST
Civil Twilight 5:49 AM MST 7:31 PM MST
Nautical Twilight 5:18 AM MST 8:01 PM MST
Astronomical Twilight 4:47 AM MST 8:33 PM MST
Moon 5:04 AM MST (4/8) 5:46 PM MST (4/8)
Length of Visible Light 13h 42m
Length of Day
12h 50m
Waning Crescent, 3% of the Moon is Illuminated
Apr 8
Waning Crescent
Apr 10
New
Apr 18
First Quarter
Apr 25
Full
May 2
Last Quarter

Hourly Weather History & Observations

Time (MST) Temp. Dew Point Humidity Pressure Visibility Wind Dir Wind Speed Gust Speed Precip Events Conditions
12:15 AM 75.2 °F 32.0 °F 21% 29.58 in 10.0 mi SE 16.1 mph - N/A   Clear
12:35 AM 75.2 °F 32.0 °F 21% 29.58 in 10.0 mi SE 13.8 mph - N/A   Clear
12:55 AM 75.2 °F 32.0 °F 21% 29.58 in 10.0 mi SE 13.8 mph - N/A   Clear
1:15 AM 75.2 °F 32.0 °F 21% 29.57 in 10.0 mi South 15.0 mph - N/A   Clear
1:35 AM 75.2 °F 33.8 °F 22% 29.55 in 10.0 mi South 18.4 mph - N/A   Clear
1:55 AM 75.2 °F 33.8 °F 22% 29.53 in 10.0 mi SSE 21.9 mph 26.5 mph N/A   Clear
2:15 AM 73.4 °F 35.6 °F 25% 29.53 in 10.0 mi SSE 20.7 mph - N/A   Clear
2:35 AM 73.4 °F 32.0 °F 22% 29.54 in 10.0 mi SW 5.8 mph - N/A   Clear
2:55 AM 71.6 °F 30.2 °F 22% 29.53 in 10.0 mi SSE 11.5 mph - N/A   Clear
3:15 AM 71.6 °F 26.6 °F 19% 29.51 in 10.0 mi SSE 9.2 mph - N/A   Clear
3:35 AM 71.6 °F 35.6 °F 27% 29.49 in 10.0 mi SSE 12.7 mph - N/A   Clear
3:55 AM 71.6 °F 32.0 °F 23% 29.48 in 10.0 mi SSE 18.4 mph 21.9 mph N/A   Clear
4:15 AM 71.6 °F 24.8 °F 17% 29.46 in 10.0 mi SSE 20.7 mph 25.3 mph N/A   Clear
4:35 AM 71.6 °F 24.8 °F 17% 29.45 in 10.0 mi SW 12.7 mph - N/A   Clear
4:55 AM 68.0 °F 26.6 °F 21% 29.44 in 10.0 mi SW 17.3 mph 26.5 mph N/A   Clear
5:15 AM 68.0 °F 26.6 °F 21% 29.44 in 10.0 mi SW 16.1 mph 26.5 mph N/A   Clear
5:35 AM 69.8 °F 24.8 °F 18% 29.44 in 10.0 mi SSW 13.8 mph 21.9 mph N/A   Clear
5:55 AM 69.8 °F 26.6 °F 20% 29.45 in 10.0 mi South 15.0 mph 25.3 mph N/A   Clear
6:15 AM 68.0 °F 26.6 °F 21% 29.45 in 10.0 mi SSE 5.8 mph - N/A   Clear
6:35 AM 64.4 °F 26.6 °F 24% 29.43 in 10.0 mi SE 8.1 mph - N/A   Clear
6:55 AM 64.4 °F 28.4 °F 26% 29.45 in 10.0 mi NNW 8.1 mph - N/A   Clear
7:15 AM 64.4 °F 30.2 °F 28% 29.48 in 10.0 mi NE 3.5 mph - N/A   Clear
7:35 AM 64.4 °F 28.4 °F 26% 29.50 in 10.0 mi SSW 5.8 mph - N/A   Clear
7:55 AM 66.2 °F 32.0 °F 28% 29.47 in 10.0 mi West 15.0 mph 21.9 mph N/A   Partly Cloudy
8:15 AM 68.0 °F 28.4 °F 23% 29.45 in 10.0 mi SSW 17.3 mph 26.5 mph N/A   Clear
8:35 AM 66.2 °F 26.6 °F 23% 29.47 in 10.0 mi WSW 28.8 mph 40.3 mph N/A   Clear
8:55 AM 64.4 °F 24.8 °F 22% 29.48 in 10.0 mi West 24.2 mph 36.8 mph N/A   Clear
9:15 AM 64.4 °F 26.6 °F 24% 29.50 in 10.0 mi WSW 16.1 mph 28.8 mph N/A   Clear
9:35 AM 66.2 °F 26.6 °F 23% 29.50 in 6.0 mi SW 16.1 mph 33.4 mph N/A   Partly Cloudy
9:55 AM 66.2 °F 28.4 °F 24% 29.50 in 5.0 mi WSW 20.7 mph 26.5 mph N/A   Partly Cloudy
10:15 AM 66.2 °F 28.4 °F 24% 29.49 in 9.0 mi WSW 16.1 mph 28.8 mph N/A   Partly Cloudy
10:35 AM 66.2 °F 28.4 °F 24% 29.49 in 10.0 mi West 21.9 mph 31.1 mph N/A   Partly Cloudy
10:55 AM 64.4 °F 28.4 °F 26% 29.50 in 10.0 mi West 11.5 mph - N/A   Partly Cloudy
11:15 AM 66.2 °F 26.6 °F 23% 29.50 in 10.0 mi SW 6.9 mph - N/A   Clear
11:35 AM 66.2 °F 26.6 °F 23% 29.49 in 10.0 mi SW 12.7 mph - N/A   Partly Cloudy
11:55 AM 68.0 °F 26.6 °F 21% 29.48 in 10.0 mi SW 5.8 mph - N/A   Partly Cloudy
12:15 PM 69.8 °F 26.6 °F 20% 29.47 in 10.0 mi SW 9.2 mph - N/A   Clear
12:35 PM 68.0 °F 26.6 °F 21% 29.47 in 10.0 mi SE 4.6 mph - N/A   Partly Cloudy
12:55 PM 71.6 °F 24.8 °F 17% 29.47 in 10.0 mi West 8.1 mph 25.3 mph N/A   Partly Cloudy
1:15 PM 71.6 °F 23.0 °F 16% 29.46 in 10.0 mi WNW 6.9 mph 20.7 mph N/A   Clear
1:35 PM 71.6 °F 23.0 °F 16% 29.45 in 10.0 mi West 8.1 mph 20.7 mph N/A   Partly Cloudy
1:55 PM 71.6 °F 23.0 °F 16% 29.45 in 10.0 mi SW 4.6 mph - N/A   Clear
2:15 PM 71.6 °F 23.0 °F 16% 29.44 in 10.0 mi SW 9.2 mph - N/A   Clear
2:35 PM 71.6 °F 23.0 °F 16% 29.43 in 10.0 mi South 6.9 mph - N/A   Scattered Clouds
2:55 PM 73.4 °F 23.0 °F 15% 29.43 in 10.0 mi West 10.4 mph 23.0 mph N/A   Scattered Clouds
3:15 PM 73.4 °F 23.0 °F 15% 29.42 in 10.0 mi West 18.4 mph 25.3 mph N/A   Scattered Clouds
3:55 PM 71.6 °F 23.0 °F 16% 29.44 in 10.0 mi West 17.3 mph 24.2 mph N/A   Partly Cloudy
4:15 PM 71.6 °F 24.8 °F 17% 29.45 in 10.0 mi West 11.5 mph 19.6 mph N/A   Partly Cloudy
4:35 PM 71.6 °F 24.8 °F 17% 29.45 in 10.0 mi NNW 23.0 mph 28.8 mph N/A   Scattered Clouds
4:55 PM 68.0 °F 32.0 °F 26% 29.47 in 10.0 mi North 26.5 mph 36.8 mph N/A   Scattered Clouds
5:15 PM 66.2 °F 30.2 °F 26% 29.50 in 10.0 mi NNW 19.6 mph 33.4 mph N/A   Partly Cloudy
5:35 PM 66.2 °F 32.0 °F 28% 29.51 in 10.0 mi WNW 16.1 mph 33.4 mph N/A   Mostly Cloudy
5:55 PM 66.2 °F 32.0 °F 28% 29.52 in 10.0 mi WNW 17.3 mph 21.9 mph N/A   Mostly Cloudy
6:15 PM 66.2 °F 32.0 °F 28% 29.52 in 10.0 mi NW 25.3 mph 32.2 mph N/A   Mostly Cloudy
6:35 PM 64.4 °F 33.8 °F 32% 29.54 in 10.0 mi NNW 24.2 mph 31.1 mph N/A   Mostly Cloudy
6:55 PM 62.6 °F 35.6 °F 37% 29.55 in 10.0 mi North 21.9 mph 26.5 mph N/A   Partly Cloudy
7:15 PM 60.8 °F 41.0 °F 48% 29.56 in 10.0 mi North 19.6 mph 31.1 mph N/A   Clear
7:35 PM 59.0 °F 37.4 °F 45% 29.58 in 10.0 mi North 25.3 mph 36.8 mph N/A   Clear
7:55 PM 59.0 °F 39.2 °F 48% 29.58 in 10.0 mi NNW 13.8 mph 20.7 mph N/A   Clear
8:15 PM 59.0 °F 39.2 °F 48% 29.59 in 10.0 mi NNW 10.4 mph 16.1 mph N/A   Clear
8:35 PM 59.0 °F 39.2 °F 48% 29.59 in 10.0 mi NNW 9.2 mph - N/A   Clear
8:55 PM 59.0 °F 39.2 °F 48% 29.58 in 10.0 mi NNW 10.4 mph - N/A   Clear
9:15 PM 59.0 °F 39.2 °F 48% 29.58 in 10.0 mi North 10.4 mph - N/A   Clear
9:35 PM 59.0 °F 39.2 °F 48% 29.58 in 10.0 mi North 9.2 mph - N/A   Clear
9:55 PM 59.0 °F 39.2 °F 48% 29.58 in 10.0 mi NNE 5.8 mph - N/A   Clear
10:15 PM 59.0 °F 39.2 °F 48% 29.58 in 10.0 mi NE 8.1 mph - N/A   Clear
10:35 PM 59.0 °F 39.2 °F 48% 29.58 in 10.0 mi NNE 9.2 mph - N/A   Clear
10:55 PM 59.0 °F 39.2 °F 48% 29.59 in 10.0 mi NNE 5.8 mph - N/A   Clear
11:15 PM 57.2 °F 39.2 °F 51% 29.59 in 10.0 mi NE 3.5 mph - N/A   Clear
11:35 PM 57.2 °F 39.2 °F 51% 29.59 in 10.0 mi North 5.8 mph - N/A   Clear
11:55 PM 57.2 °F 39.2 °F 51% 29.60 in 10.0 mi North 6.9 mph - N/A   Partly Cloudy